NOAA NWS Hourly Roundups by Site

Regional Weather Roundup for San Diego, CA

To Select Another Site Choose from List

Select Site:  

000
ASUS46 KSGX 171711
RWRSGX

SAN DIEGO HOURLY WEATHER ROUNDUP
NATIONAL WEATHER SERVICE SAN DIEGO CA
1000 AM PDT MON JUN 17 2019

NOTE: "FAIR" INDICATES FEW OR NO CLOUDS BELOW 12,000 FEET WITH NO
SIGNIFICANT WEATHER AND/OR OBSTRUCTIONS TO VISIBILITY.

CAZ042-043-060-061-PZZ750-775-171800-

GREATER SAN DIEGO AREA

CITY           SKY/WX    TMP DP  RH WIND       PRES   REMARKS
SAN DIEGO AP   CLOUDY    63  57  81 SW3       29.93S
NATIONAL CITY    N/A     64  60  87 CALM      29.92R
CHULA VISTA      N/A     63  60  89 W1        29.83R
IMPERIAL BEACH DRIZZLE   63  56  78 W7        29.93R
BROWN FIELD    CLOUDY    62  58  86 NW5       29.92R
MIRAMAR MCAS   CLOUDY    67  59  75 SW5       29.91S
MONTGOMERY FLD CLOUDY    63  57  81 SW6       29.92R
GILLESPIE FLD  CLOUDY    64  59  82 CALM      29.92  FOG

$$

NORTH SAN DIEGO COUNTY

CITY           SKY/WX    TMP DP  RH WIND       PRES   REMARKS
CAMP PENDLETON CLOUDY    64  60  87 SW5       29.91R
OCEANSIDE AP   CLOUDY    65  59  81 W6        29.90S
OCEANSIDE HBR    N/A     64  61  91 CALM      29.93S
VISTA            N/A     62  56  83 CALM      29.89R
CARLSBAD       CLOUDY    63  60  90 SW3       29.90S FOG
DEL MAR          N/A     62  60  94 SW6       29.93R
LA JOLLA SCRIP   N/A     62  59  89 S3        29.91S
FALLBROOK      CLOUDY    63  57  82 CALM      29.91F
ESCONDIDO        N/A     64  61  90 CALM      29.91R
SAN MARCOS       N/A     61  59  93 CALM      29.94S
POWAY            N/A     62  59  89 CALM      29.92R

$$

EAST SAN DIEGO COUNTY

CITY           SKY/WX    TMP DP  RH WIND       PRES   REMARKS
RAMONA         CLOUDY    64  56  75 CALM      29.92R
SANTEE LAKES     N/A     64  60  85 SW1       29.88S
LA MESA          N/A     61  59  95 CALM      29.86R
JAMUL            N/A     60  59  96 CALM      29.90S
DESCANSO N       N/A     65  57  75 SW6       29.80R
MT. LAGUNA OBS   N/A     76  40  28 SW5       29.71R
CAMPO            N/A     70  53  54 SW9       29.88S

$$

ORANGE COUNTY AND THE LOS ANGELES BASIN

CITY           SKY/WX    TMP DP  RH WIND       PRES   REMARKS
JOHN WAYNE AP  CLOUDY    65  58  78 SW7       29.90S
LAGUNA BEACH     N/A     64  62  93 S2        29.89R
LAKE FOREST FR   N/A     61  58  91 SW1       29.79S
HUNTINGTON BCH   N/A     65  61  88 SW3       29.91R
LOS ALAMITOS   CLOUDY    66  57  72 S5        29.90S
FULLERTON      CLOUDY    67  57  70 CALM      29.89S
LONG BEACH     CLOUDY    65  57  75 VRB5      29.90S
L.A. AP        CLOUDY    65  57  75 W7        29.90S
L.A. DOWNTOWN  CLOUDY    67  58  72 CALM      29.90R

$$

THE INLAND EMPIRE

CITY           SKY/WX    TMP DP  RH WIND       PRES   REMARKS
CORONA         CLOUDY    66  59  78 CALM      29.91S
CHINO          CLOUDY    67  60  78 CALM      29.91S
ONTARIO        CLOUDY    68  61  78 CALM      29.90S
RIVERSIDE AP   CLOUDY    66  58  75 CALM      29.90S
MORENO VALLEY    N/A     63  62  96 SW1       28.04R
MARCH ARB      CLOUDY    64  64 100 CALM      29.91S
PERRIS           N/A     64  61  91 CALM        N/A
HEMET EAST       N/A     68  56  65 SW1       29.89S
FRENCH VALLEY  CLOUDY    63  57  82 CALM      29.92S
TEMECULA         N/A     65  61  87 S3        29.90R

$$

SAN BERNARDINO AND RIVERSIDE COUNTY MOUNTAINS

CITY           SKY/WX    TMP DP  RH WIND       PRES   REMARKS
BIG BEAR AP    MOSUNNY   66  30  26 E12G17    30.09S
ANGELUS OAKS     N/A     68  39  33 CALM      29.71R

$$

SOUTHERN DESERT INCLUDING THE COACHELLA VALLEY

CITY           SKY/WX    TMP DP  RH WIND       PRES   REMARKS
PALM SPRINGS   SUNNY     87  53  31 SE6       29.77S
THOUSAND PALMS   N/A     85  57  37 NW10      29.72R
PALM DESERT      N/A     87  58  36 CALM        N/A
THERMAL        SUNNY     89  55  31 VRB5      29.73S
BORREGO AP     NOT AVBL
BLYTHE         SUNNY     91  44  19 S9        29.76S
IMPERIAL AP    SUNNY     87  54  32 MISG      29.74R
EL CENTRO NAS  MOSUNNY   87  54  32 E6        29.76R
YUMA AZ        MOSUNNY   90  50  25 S10       29.75S
MEXICALI       SUNNY     86  61  42 E5        29.76R

$$

UPPER DESERT

CITY           SKY/WX    TMP DP  RH WIND       PRES   REMARKS
VICTORVILLE AP SUNNY    N/A N/A N/A CALM      29.91R
HESPERIA         N/A     82  46  27 NE1       29.79S
APPLE VALLEY     N/A     80  49  33 N1        29.81S
PALMDALE       MOSUNNY   81  44  27 CALM      29.88S
LANCASTER      SUNNY     82  44  26 CALM      29.87S
EDWARDS AFB    PTSUNNY   78  46  31 CALM      29.85S
DAGGETT        MOSUNNY   84  46  26 W9        29.85S
29 PALMS N     MOSUNNY   86  40  19 NW5       29.91S
NEEDLES        SUNNY     93  45  19 CALM      29.79S

$$

REGIONAL REPORTS

CITY           SKY/WX    TMP DP  RH WIND       PRES   REMARKS
SANTA BARBARA  CLOUDY    61  58  90 CALM      29.90S FOG
SANDBERG       SUNNY     75  50  41 VRB5      30.00R
LAS VEGAS NV   MOSUNNY   85  48  27 VRB6      29.88S
PHOENIX AZ     MOSUNNY   94  36  13 S12       29.80F
TIJUANA        CLOUDY    63  57  82 W6        29.94S
ENSENADA NW      N/A     62  32  32 CALM      29.90R

$$

OFFSHORE ISLANDS

CITY           SKY/WX    TMP DP  RH WIND       PRES   REMARKS
CATALINA ARPT  CLOUDY    59  56  89 SE6       29.92S
SAN NICOLAS IS CLOUDY    62  53  72 CALM      29.91R FOG

$$

MARINE AND OFFSHORE BUOY REPORTS

STATION/POSITION SKY/WX   TEMP    WIND        PRES    VSBY  SWELL
                          AIR SEA DIR/SP/G                  HT/PER/DIR
                          (F)     (DEG/KT/KT) (MB)    (MI)  (FT/S/D)
TANNER BANKS               58 61  310/  8/ 12 1013.4R         5/290/13
S CLEMENTE BASIN           60 64  280/  4/  6 1013.3R         3/210/17
SAN NICOLAS IS.               59                N/A           3/210/18
SO. S. ROSA ISLA           56 59  290/  8/  8 1013.9R         3/300/13
W. S. BARBARA CH                                N/A           5/310/ 9
M. S. BARBARA CH           58 62  280/  4/  6 1013.4R         2/280/13
S. MONICA BASIN            62 65  200/  4/  6 1013.0R         2/220/17
S PEDRO CHANNEL               65                N/A           2/270/13
CMP PENDLETON NS              66                N/A           2/220/18
OCEANSIDE OFFSHR              67                N/A           2/210/15
TORREY PINES OTR              66                N/A           2/200/18
SAN DIEGO BAY                 70              1012.7R
IMPERIAL BEACH                63                N/A           2/240/18
POINT LOMA SOUTH              65                N/A           3/200/18

$$



 

View Past Reports for San Diego, CA.

Products Courtesy of NOAA-NWS
NWS Information Parsing Script by Ken True at Saratoga Weather - Script by SE Lincoln Weather.